EW3114 Weather Reports


time (UTC)temp
C
wind
direction
speed
KPH
gust
KPH
rain 1hr
cm
rain 24hr
cm
rain mn
cm
humidity
%
barometer
mb
20260509123011 -17 227 0.0 0.0 0.00 0.00 0.00 1006.7
20260509121600 -17 198 0.0 0.0 0.00 0.00 0.00 1006.8
20260509120100 -17 221 0.0 0.0 0.00 0.00 0.00 1006.8
20260509114551 -17 56 0.0 0.0 0.00 0.00 0.00 1006.8
20260509113047 -17 219 0.0 0.0 0.00 0.00 0.00 1006.6
20260509111543 -17 259 0.0 0.0 0.00 0.00 0.00 1006.2
20260509110037 -17 143 0.0 0.0 0.00 0.00 0.00 1006.2
20260509104541 -17 131 0.0 0.0 0.00 0.00 0.00 1006.1
20260509103029 -17 231 0.0 0.0 0.00 0.00 0.00 1006.3
20260509101526 -17 130 0.0 0.0 0.00 0.00 0.00 1006.3
20260509100009 -17 117 0.0 0.0 0.00 0.00 0.00 1006.5
20260509094504 -17 129 0.0 0.0 0.00 0.00 0.00 1006.6
20260509093103 -17 184 0.0 0.0 0.00 0.00 0.00 1006.7
20260509091558 -17 221 0.0 0.0 0.00 0.00 0.00 1007.0
20260509090059 -17 198 0.0 0.0 0.00 0.00 0.00 1007.0
20260509084606 -17 146 0.0 0.0 0.00 0.00 0.00 1007.1
20260509083055 -17 150 0.0 0.0 0.00 0.00 0.00 1007.0
20260509081549 -17 220 0.0 0.0 0.00 0.00 0.00 1006.8
20260509080038 -17 195 0.0 0.0 0.00 0.00 0.00 1006.8
20260509074530 -17 245 0.0 0.0 0.00 0.00 0.00 1007.2
20260509073039 -17 254 0.0 0.0 0.00 0.00 0.00 1007.2
20260509071527 -17 112 0.0 0.0 0.00 0.00 0.00 1007.5
20260509070033 -17 159 0.0 0.0 0.00 0.00 0.00 1007.6
20260509064511 -17 244 0.0 0.0 0.00 0.00 0.00 1007.7
20260509063007 -17 250 0.0 0.0 0.00 0.00 0.00 1007.7
20260509061613 -17 49 0.0 0.0 0.00 0.00 0.00 1008.1
20260509060057 -17 102 0.0 0.0 0.00 0.00 0.00 1008.3
20260509054543 -17 305 0.0 0.0 0.00 0.00 0.00 1008.3
20260509053041 -17 255 0.0 0.0 0.00 0.00 0.00 1008.2
20260509051533 -17 247 0.0 0.0 0.00 0.00 0.00 1008.3
20260509050028 -17 228 0.0 0.0 0.00 0.00 0.00 1008.2
20260509044526 -17 270 0.0 0.0 0.00 0.00 0.00 1008.4
20260509043019 -17 223 0.0 0.0 0.00 0.00 0.00 1008.3
20260509041503 -17 238 0.0 0.0 0.00 0.00 0.00 1008.3
20260509034554 -17 244 0.0 0.0 0.00 0.00 0.00 1008.5
20260509033050 -17 219 0.0 0.0 0.00 0.00 0.00 1008.6
20260509031545 -17 196 0.0 0.0 0.00 0.00 0.00 1008.7
20260509030042 -17 157 0.0 0.0 0.00 0.00 0.00 1008.7
20260509024539 -17 65 0.0 0.0 0.00 0.00 0.00 1008.8
20260509023032 -17 175 0.0 0.0 0.00 0.00 0.00 1008.8
20260509021509 -17 186 0.0 0.0 0.00 0.00 0.00 1008.9
20260509020004 -17 35 0.0 0.0 0.00 0.00 0.00 1008.8
20260509014600 -17 180 0.0 0.0 0.00 0.00 0.00 1008.7
20260509013059 -17 145 0.0 0.0 0.00 0.00 0.00 1008.8
20260509011552 -17 159 0.0 0.0 0.00 0.00 0.00 1008.6
20260509010047 -17 153 0.0 0.0 0.00 0.00 0.00 1008.7
20260509004542 -17 138 0.0 0.0 0.00 0.00 0.00 1008.8
20260509003042 -17 153 0.0 0.0 0.00 0.00 0.00 1008.7
20260509001520 -17 163 0.0 0.0 0.00 0.00 0.00 1008.8
20260509000016 -17 138 0.0 0.0 0.00 0.00 0.00 1008.8
20260508234512 -17 252 0.0 0.0 0.00 0.00 0.00 1008.8
20260508233007 -17 314 0.0 0.0 0.00 0.00 0.00 1008.9
20260508231502 -17 297 0.0 0.0 0.00 0.00 0.00 1008.9
20260508230100 -17 223 0.0 0.0 0.00 0.03 0.00 1009.0
20260508224557 -17 129 0.0 0.0 0.00 0.03 0.00 1009.0
20260508223049 -17 134 0.0 0.0 0.00 0.03 0.00 1009.1
20260508221531 -17 226 0.0 0.0 0.00 0.03 0.00 1009.1
20260508220026 -17 133 0.0 0.0 0.00 0.15 0.00 1009.3
20260508214522 -17 56 0.0 0.0 0.00 0.15 0.00 1009.4
20260508213017 -17 157 0.0 0.0 0.00 0.15 0.00 1009.5
20260508211516 -17 241 0.0 0.0 0.00 0.15 0.00 1009.4
20260508210008 -17 104 0.0 0.0 0.00 0.15 0.00 1009.4
20260508204504 -17 168 0.0 0.0 0.00 0.15 0.00 1009.6
20260508203107 -17 143 0.0 0.0 0.00 0.15 0.00 1009.9
20260508201602 -17 323 0.0 0.0 0.00 0.15 0.00 1010.0
20260508200030 -17 146 0.0 0.0 0.00 0.15 0.00 1010.4
20260508194525 -17 284 0.0 0.0 0.00 0.15 0.00 1010.5
20260508193021 -17 246 0.0 0.0 0.00 0.15 0.00 1010.6
20260508191523 -17 136 0.0 0.0 0.00 0.15 0.00 1010.9
20260508190013 -17 101 0.0 0.0 0.00 0.15 0.00 1011.0
20260508184506 -17 271 0.0 0.0 0.00 0.15 0.00 1011.1
20260508183001 -17 80 0.0 0.0 0.00 0.15 0.00 1011.4
20260508181604 -17 141 0.0 0.0 0.00 0.15 0.00 1011.4
20260508180041 -17 143 0.0 0.0 0.00 0.15 0.00 1011.7
20260508174547 -17 248 0.0 0.0 0.00 0.15 0.00 1012.0
20260508173040 -17 138 0.0 0.0 0.00 0.15 0.00 1012.2
20260508171527 -17 149 0.0 0.0 0.00 0.15 0.00 1012.4
20260508170022 -17 85 0.0 0.0 0.00 0.15 0.00 1012.7
20260508164518 -17 137 0.0 0.0 0.00 0.15 0.00 1012.9
20260508163017 -17 181 0.0 0.0 0.00 0.15 0.00 1013.2
20260508161510 -17 127 0.0 0.0 0.00 0.15 0.00 1013.2
20260508160047 -17 131 0.0 0.0 0.00 0.15 0.00 1013.4
20260508154543 -17 155 0.0 0.0 0.00 0.15 0.00 1013.4
20260508153022 -17 85 0.0 0.0 0.00 0.15 0.00 1013.6
20260508151527 -17 158 0.0 0.0 0.00 0.15 0.00 1013.6
20260508150026 -17 145 0.0 0.0 0.00 0.15 0.00 1013.7
20260508144508 -17 268 0.0 0.0 0.00 0.15 0.00 1013.7
20260508143002 -17 216 0.0 0.0 0.00 0.15 0.00 1014.0
20260508141621 -17 255 0.0 0.0 0.00 0.15 0.00 1013.9
20260508140056 -17 202 0.0 0.0 0.00 0.15 0.00 1013.7
20260508134602 -17 152 0.0 0.0 0.00 0.15 0.00 1013.7
20260508133033 -17 103 0.0 0.0 0.00 0.15 0.00 1013.7
20260508131528 -17 139 0.0 0.0 0.00 0.15 0.00 1013.7
20260508130023 -17 281 0.0 0.0 0.00 0.15 0.00 1014.0
20260508124521 -17 146 0.0 0.0 0.00 0.15 0.00 1014.2